CAPE
0 0 0 0 0 0 0 0 0 0 0 0 0 0 0 0 0 0 0 0 0 0
0 0 0 0 0 0 0 0 0 0 0 0 0 0 0 0 0 0 0 0 0 0
0 0 0 0 0 0 0 0 0 0 0 0 0 0 0 0 0 0 0 0 0 0
0 0 0 0 0 0 0 0 0 0 0 0 0 0 0 0 0 0 0 0 0 0
0 0 0 0 0 0 0 0 0 0 0 0 0 0 0 0 0 0 0 0 0 0
0 0 0 0 0 0 0 0 0 0 0 0 0 0 0 0 0 0 0 0 0 0
0 0 0 0 0 0 0 0 0 0 0 0 0 0 0 0 0 0 0 0 0 0
0 0 0 0 0 0 0 0 0 0 0 0 0 0 0 0 0 0 0 0 0 0
0 0 0 0 0 0 0 0 0 0 0 0 0 0 0 0 0 0 0 0 0 0
0 0 0 0 0 0 0 0 0 0 0 0 0 0 0 0 0 0 0 0 0 0
0 0 0 0 0 0 0 0 0 0 0 0 0 0 0 0 0 0 0 0 0 0
0 0 0 0 0 0 0 0 0 0 0 0 0 0 0 0 0 0 0 0 0 0
0 0 0 0 0 0 0 0 0 0 0 0 0 0 0 0 0 0 0 0 0 0
0 0 0 0 0 0 0 0 0 0 0 0 0 0 0 0 0 0 0 0 0 1
CIN
-0 -0 -0 -0 -0 -0 -0 -0 -0 -0 -0 -0 -0 -0 -0 -0 -0 -0 -0 -0 -0 -0
-0 -0 -0 -0 -0 -0 -0 -0 -0 -0 -0 -0 -0 -0 -0 -0 -0 -0 -0 -0 -0 -0
-0 -0 -0 -0 -0 -0 -0 -0 -0 -0 -0 -0 -0 -0 -0 -0 -0 -0 -0 -0 -0 -0
-0 -0 -0 -0 -0 -0 -0 -0 -0 -0 -0 -0 -0 -0 -0 -0 -0 -0 -0 -0 -0 -0
-0 -0 -0 -0 -0 -0 -0 -0 -0 -0 -0 -0 -0 -0 -0 -0 -0 -0 -0 -0 -0 -0
-0 -0 -0 -0 -0 -0 -0 -0 -0 -0 -0 -0 -0 -0 -0 -0 -0 -0 -0 -0 -0 -0
-0 -0 -0 -0 -0 -0 -0 -0 -0 -0 -0 -0 -0 -0 -0 -0 -0 -0 -0 -0 -0 -0
-0 -0 -0 -0 -0 -0 -0 -0 -0 -0 -0 -0 -0 -0 -0 -0 -0 -0 -0 -0 -0 -0
-0 -0 -0 -0 -0 -0 -0 -0 -0 -0 -0 -0 -0 -0 -0 -0 -0 -0 -0 -0 -0 -0
-0 -0 -0 -0 -0 -0 -0 -0 -0 -0 -0 -0 -0 -0 -0 -0 -0 -0 -0 -0 -0 -0
-0 -0 -0 -0 -0 -0 -0 -0 -0 -0 -0 -0 -0 -0 -0 -0 -0 -0 -0 -0 -0 -0
-0 -0 -0 -0 -0 -0 -0 -0 -0 -0 -0 -0 -0 -0 -0 -0 -0 -0 -0 -0 -0 -0
-0 -0 -0 -0 -0 -0 -0 -0 -0 -0 -0 -0 -0 -0 -0 -0 -0 -0 -0 -0 -0 -0
-0 -0 -0 -0 -0 -0 -0 -0 -0 -0 -0 -0 -0 -0 -0 -0 -0 -0 -0 -0 -0 -1
Wind_Speed
13 12 13 13 14 14 15 15 15 16 16 16 17 18 18 18 19 20 21 22 23 24
13 12 13 13 14 14 15 15 16 17 17 18 18 18 19 20 22 22 23 24 25 26
13 12 13 14 14 14 15 16 16 18 19 19 19 19 20 22 23 24 25 26 28 29
13 13 12 12 13 14 15 16 17 18 18 19 20 21 22 24 25 26 28 29 30 32
11 11 11 13 14 14 16 17 17 17 19 20 21 23 24 26 28 29 31 32 34 35
10 10 11 12 13 15 16 17 18 18 20 21 23 25 26 28 30 32 33 34 35 37
8 9 11 12 14 15 16 17 18 20 21 23 25 27 29 32 33 34 34 35 36 38
8 9 11 12 14 15 16 17 19 21 23 25 28 30 32 34 35 36 37 37 38 38
8 10 11 12 14 15 17 19 21 24 26 28 30 33 34 35 37 37 39 41 41 41
8 10 11 13 15 17 19 21 23 26 28 31 33 34 36 37 37 39 40 42 44 44
8 10 12 14 17 18 20 23 26 28 31 33 34 36 37 38 39 41 42 43 44 45
9 11 13 16 17 20 23 25 28 29 32 34 36 37 39 41 42 44 44 44 44 44
11 12 14 16 19 22 24 26 29 31 32 34 37 39 41 43 43 46 46 45 44 44
12 13 16 18 21 23 26 28 30 32 34 37 38 40 41 43 44 46 48 49 48 46
Wind_Direction
278 292 305 317 323 333 337 342 348 347 350 354 354 354 355 355 353 352 351 348 346 343
282 296 308 317 328 330 338 343 347 348 351 352 353 354 354 351 349 349 347 344 342 339
285 302 310 316 325 334 340 343 344 344 348 350 353 354 353 349 348 346 344 341 339 337
289 302 317 326 329 337 340 341 343 347 350 350 351 351 348 346 345 342 340 339 337 334
297 307 321 326 334 340 339 344 349 350 350 349 349 347 346 344 342 339 336 335 333 332
302 313 326 333 336 340 341 345 347 349 349 347 346 345 343 341 338 336 334 333 331 330
310 322 328 335 339 341 344 347 348 348 348 346 344 342 340 337 335 334 333 332 331 329
320 330 335 338 341 345 346 348 348 347 345 344 342 339 337 335 334 333 331 331 330 329
330 334 336 339 343 345 347 346 346 343 343 341 339 337 337 335 333 333 331 330 329 329
334 338 338 341 344 345 344 345 343 342 340 338 337 337 336 336 335 333 332 330 329 328
341 342 341 343 344 345 345 343 342 340 339 338 338 338 337 336 335 333 332 331 330 328
346 344 345 344 346 345 343 341 341 340 339 338 338 338 337 336 334 333 332 332 331 330
351 350 350 349 346 343 343 342 341 340 341 340 339 339 338 337 335 332 331 332 331 332
357 356 352 347 346 345 343 342 342 341 341 340 340 339 339 337 335 333 331 331 331 332